Weather History for Kenosha, WI

Change the Weather History Date:

Monday, February 11, 2013

  Actual Average Record
Temperature  
Mean Temperature 34 °F -  
Max Temperature 41 °F 29 °F 66 °F (1999)
Min Temperature 27 °F 16 °F -9 °F (2014)
Degree Days  
Heating Degree Days 30    
Moisture  
Dew Point 24 °F    
Average Humidity 72    
Maximum Humidity 82    
Minimum Humidity 65    
Precipitation  
Precipitation 0.00 in - - ()
Sea Level Pressure  
Sea Level Pressure 29.69 in    
Wind  
Wind Speed 27 mph (WSW)    
Max Wind Speed 37 mph    
Max Gust Speed 48 mph    
Visibility 8 miles    
Events Snow    
Averages and records for this station are not official NWS values.
T = Trace of Precipitation, MM = Missing Value Source: NWS Daily Summary

Daily Weather History Graph

Daily Weather History Graph

Search for Another Location

Airport:

Trip Planner

Search our weather history database for the weather conditions in past years. The results will help you decide how hot, cold, wet, or windy it might be!

Date:

Astronomy

Feb. 11, 2013 Rise Set
Actual Time 6:53 AM CST 5:18 PM CST
Civil Twilight 6:24 AM CST 5:48 PM CST
Nautical Twilight 5:51 AM CST 6:21 PM CST
Astronomical Twilight 5:18 AM CST 6:54 PM CST
Moon 7:14 AM CST (2/11) 7:19 PM CST (2/11)
Length of Visible Light 11h 23m
Length of Day
10h 25m
Waxing Crescent, 3% of the Moon is Illuminated
Feb 11
Waxing Crescent
Feb 17
First Quarter
Feb 25
Full
Mar 4
Last Quarter
Mar 11
New

Hourly Weather History & Observations

Time (CST) Temp. Windchill Dew Point Humidity Pressure Visibility Wind Dir Wind Speed Gust Speed Precip Events Conditions
12:53 AM 41.0 °F 30.7 °F 30.0 °F 65% 29.47 in 10.0 mi SW 25.3 mph 38.0 mph N/A   Overcast
1:53 AM 39.0 °F 27.6 °F 30.0 °F 70% 29.48 in 10.0 mi WSW 27.6 mph 33.4 mph N/A   Overcast
2:53 AM 37.0 °F 23.9 °F 30.0 °F 76% 29.48 in 10.0 mi WSW 33.4 mph 40.3 mph 0.00 in   Overcast
3:53 AM 36.0 °F 21.8 °F 27.0 °F 70% 29.48 in 10.0 mi WSW 36.8 mph 48.3 mph 0.00 in   Overcast
4:53 AM 34.0 °F 20.8 °F 27.0 °F 75% 29.50 in 10.0 mi WSW 27.6 mph 39.1 mph N/A   Overcast
5:53 AM 34.0 °F 20.5 °F 25.0 °F 70% 29.52 in 10.0 mi WSW 28.8 mph 41.4 mph N/A   Overcast
6:53 AM 33.1 °F 18.9 °F 25.0 °F 72% 29.53 in 10.0 mi WSW 31.1 mph 43.7 mph N/A   Overcast
7:53 AM 33.1 °F 19.3 °F 25.0 °F 72% 29.55 in 10.0 mi WSW 28.8 mph 42.6 mph N/A   Overcast
8:24 AM 33.8 °F 19.4 °F 24.8 °F 70% 29.55 in 2.0 mi WSW 33.4 mph 38.0 mph 0.00 in Snow Light Snow
8:53 AM 32.0 °F 17.9 °F 27.0 °F 82% 29.57 in 1.5 mi WSW 28.8 mph 38.0 mph 0.00 in Snow Light Snow
9:00 AM 33.8 °F 19.9 °F 26.6 °F 75% 29.56 in 1.5 mi WSW 31.1 mph 38.0 mph 0.00 in Snow Light Snow
9:25 AM 33.8 °F 20.1 °F 26.6 °F 75% 29.57 in 2.5 mi West 29.9 mph 42.6 mph 0.00 in Snow Light Snow
9:32 AM 33.8 °F 20.1 °F 26.6 °F 75% 29.57 in 1.5 mi WSW 29.9 mph 41.4 mph 0.00 in Snow Light Snow
9:53 AM 32.0 °F 17.6 °F 26.1 °F 79% 29.61 in 1.5 mi West 29.9 mph 40.3 mph 0.00 in Snow Light Snow
10:02 AM 32.0 °F 17.6 °F 26.6 °F 80% 29.59 in 3.0 mi West 29.9 mph 43.7 mph 0.00 in Snow Light Snow
10:53 AM 33.1 °F 20.3 °F 25.0 °F 72% 29.65 in 3.0 mi West 24.2 mph 39.1 mph 0.00 in   Haze
11:53 AM 33.1 °F 19.3 °F 25.0 °F 72% 29.68 in 10.0 mi West 28.8 mph 34.5 mph N/A   Overcast
12:53 PM 32.0 °F 18.1 °F 25.0 °F 75% 29.70 in 10.0 mi West 27.6 mph 41.4 mph N/A   Overcast
1:53 PM 32.0 °F 19.8 °F 23.0 °F 69% 29.74 in 10.0 mi West 20.7 mph 38.0 mph N/A   Overcast
2:53 PM 30.9 °F 16.2 °F 21.9 °F 69% 29.78 in 10.0 mi West 29.9 mph 40.3 mph N/A   Overcast
3:53 PM 30.9 °F 17.8 °F 21.0 °F 67% 29.82 in 10.0 mi West 23.0 mph 33.4 mph N/A   Overcast
4:53 PM 30.0 °F 18.3 °F 21.0 °F 69% 29.86 in 10.0 mi West 17.3 mph 28.8 mph N/A   Overcast
5:53 PM 30.0 °F 17.2 °F 21.0 °F 69% 29.90 in 10.0 mi West 20.7 mph 27.6 mph N/A   Overcast
6:53 PM 28.9 °F 15.8 °F 19.9 °F 69% 29.93 in 10.0 mi West 20.7 mph 29.9 mph N/A   Overcast
7:53 PM 28.9 °F 16.5 °F 19.9 °F 69% 29.94 in 10.0 mi West 18.4 mph 26.5 mph N/A   Overcast
8:53 PM 28.9 °F 15.4 °F 19.0 °F 67% 29.96 in 10.0 mi West 21.9 mph 31.1 mph N/A   Overcast
9:53 PM 28.0 °F 14.6 °F 19.0 °F 69% 29.97 in 10.0 mi West 20.7 mph 27.6 mph N/A   Overcast
10:53 PM 28.0 °F 20.0 °F 19.9 °F 72% 29.99 in 10.0 mi West 8.1 mph - N/A   Overcast
11:53 PM 27.0 °F 14.7 °F 19.0 °F 72% 30.01 in 10.0 mi West 16.1 mph 25.3 mph N/A   Overcast